Regional Weather Roundup
Issued by NWS

Home | Current Version | Previous Version | Graphics & Text | Print | Product List | Glossary Off
Versions: 1 2 3 4 5 6 7 8 9 10 11 12 13 14 15 16 17 18 19 20 21 22 23 24 25 26 27 28 29 30 31 32 33 34 35 36 37 38 39 40 41 42 43 44 45 46 47 48 49 50

000
ASUS43 KTOP 070208
RWRKS

WEATHER ROUNDUP FOR KANSAS
NATIONAL WEATHER SERVICE GOODLAND KS
900 PM CDT MON JUL 06 2015

NOTE:  "FAIR" INDICATES FEW OR NO CLOUDS BELOW 12,000 FEET WITH NO
SIGNIFICANT WEATHER AND/OR OBSTRUCTIONS TO VISIBILITY.

KSZ001>006-013>018-027>032-041>047-070300-
NORTHWEST KANSAS

CITY           SKY/WX    TMP DP  RH WIND       PRES   REMARKS
GOODLAND       CLOUDY    67  53  61 NE10      30.17R HAZE
HAYS           CLOUDY    75  55  50 NE17G25   30.05R
HILL CITY      CLOUDY    73  51  46 NE15G22   30.08R HAZE
RUSSELL        LGT RAIN  73  63  70 NE17      30.02R
$$

KSZ061>065-074>080-084>089-070300-
SOUTHWEST KANSAS

CITY           SKY/WX    TMP DP  RH WIND       PRES   REMARKS
DODGE CITY     CLOUDY    71  60  68 N17       30.03S
ELKHART          N/A     69  57  65 N10         N/A
GARDEN CITY    CLOUDY    73  59  61 N16       30.07R
GREAT BEND     CLOUDY    73  63  68 NE15      30.02R
LIBERAL        CLOUDY    72  59  64 N20       30.08S
PRATT          LGT RAIN  70  64  83 N17G26    30.00R
$$

KSZ066>073-081>083-090>101-070300-
SOUTHEAST KANSAS

CITY           SKY/WX    TMP DP  RH WIND       PRES   REMARKS
CHANUTE        TSTM      71  71 100 NE6       29.92R
COFFEYVILLE    CLOUDY    83  74  74 VRB6      29.91R
HUTCHINSON     CLOUDY    72  67  84 N13G22    29.96R
MEDICINE LODGE   N/A     74  69  85 N16G30    29.93R
NEWTON         CLOUDY    72  66  83 NE12G17   29.95R
PARSONS        TSTM      73  72  96 NW3       29.93F FOG
WICHITA INTL   LGT RAIN  75  71  87 N12       29.89R FOG
WICHITA JABRA  LGT RAIN  71  71 100 N10       29.90F
WICHITA MCCONL CLOUDY    72  70  94 N8        29.90S THUNDER
WINFIELD       RAIN      71  70  96 SE3       29.93R FOG
$$

KSZ007>012-019>026-033>040-048>060-102>105-070300-
NORTHEAST KANSAS

CITY           SKY/WX    TMP DP  RH WIND       PRES   REMARKS
CONCORDIA      CLOUDY    72  64  76 N17       30.00R
EMPORIA        LGT RAIN  70  69  97 E3        29.90S
LAWRENCE       LGT RAIN  72  71  97 SW5       29.90R
MANHATTAN      LGT RAIN  72  71  97 N6        29.94R FOG
MARYSVILLE     CLOUDY    72  68  88 N12G17    29.97R
OLATHE IND     CLOUDY    71  70  96 W5        29.90R
OLATHE EXE     LGT RAIN  71  70  96 W7        29.89R
SALINA         CLOUDY    72  68  87 N16       29.97R FOG
TOPEKA BILLARD LGT RAIN  72  72 100 NW5       29.90S
TOPEKA FORBES  LGT RAIN  74  71  91 NW5       29.90S
$$


USA.gov is the U.S. government's official web portal to all federal, state and local government web resources and services.